Theta_e
326 328 330 335 337 338 341 342 343 344 344 345 346 346 346 347 346 347 346 347 347 347 348 347 348 348 347 348 348 349 349 349 349 349 349 349 349 349 349 348 349 349 350 350 349 349 350 350 350 349 350 350 350 351 349 348 347 347 347 347 348 347 347 347 348 348 349 349 349 349 349 350 351 353 354 355 355 354 355 355 354 350 350 351 353
325 327 329 331 335 336 338 340 341 342 342 342 343 344 344 345 345 345 346 346 346 347 346 347 347 345 346 348 346 347 346 347 347 346 348 348 348 349 348 348 348 348 349 350 350 349 349 349 350 350 350 350 350 350 350 349 348 347 347 347 347 347 347 347 347 348 348 349 349 349 348 348 350 352 354 355 354 354 355 354 353 350 348 353 352
326 328 329 331 333 334 335 337 338 339 340 341 341 341 342 342 342 343 344 345 345 347 347 348 347 346 346 347 347 347 346 347 346 347 347 347 347 347 348 348 348 348 349 349 348 348 349 349 350 349 350 350 349 349 350 349 348 348 347 347 347 347 347 347 347 347 348 348 348 348 346 345 348 353 355 356 354 354 355 353 353 352 349 354 353
324 327 329 330 332 333 333 335 335 336 338 338 338 338 339 340 341 342 343 343 344 345 345 346 347 347 347 347 347 347 346 347 347 346 345 347 347 346 346 347 347 347 348 347 348 349 348 348 349 347 348 347 348 348 348 348 348 349 349 348 347 347 347 347 347 347 348 348 348 346 343 339 340 350 356 356 354 354 353 353 351 352 354 354 355
323 324 328 327 328 332 332 333 334 335 335 337 337 337 338 338 339 339 340 340 341 342 343 343 344 344 344 344 344 344 344 344 345 345 345 345 345 344 343 345 346 346 347 347 347 348 348 347 347 348 347 347 347 347 347 347 348 348 348 349 348 348 348 347 349 348 348 347 346 345 342 338 336 348 355 354 354 354 352 353 353 353 354 354 354
322 324 327 326 326 328 332 332 333 334 334 334 335 336 336 336 336 337 337 338 338 338 339 339 341 342 342 341 341 340 341 341 342 342 342 342 342 341 341 342 344 345 346 347 347 347 346 345 347 347 346 346 346 346 346 346 347 347 348 348 348 348 348 348 348 348 347 346 344 343 343 342 341 354 353 353 353 354 352 353 354 354 353 354 354
322 323 325 325 325 328 332 331 333 333 333 333 333 334 334 335 334 334 335 335 335 335 336 337 338 338 338 338 338 338 338 338 338 339 339 339 339 339 338 339 341 342 343 344 344 345 345 345 346 346 345 342 343 344 345 345 346 346 345 345 345 345 345 344 344 344 344 344 342 342 337 336 337 341 350 350 352 352 354 353 354 353 354 354 354
318 323 323 323 323 328 330 331 332 332 331 331 331 332 332 332 332 332 333 333 333 334 335 335 335 335 335 335 334 335 335 335 336 336 337 337 337 336 335 335 337 338 340 341 341 342 342 342 341 342 341 340 339 340 341 341 343 344 343 343 343 342 341 340 339 339 341 343 342 342 340 338 338 340 345 343 345 351 352 353 353 353 353 354 350
317 321 321 321 322 329 329 329 330 330 330 330 330 330 330 330 330 330 330 331 331 331 332 332 332 332 332 332 332 331 331 331 332 333 333 333 333 333 332 332 333 334 336 337 338 338 338 338 338 338 337 336 335 336 337 338 340 340 340 341 341 340 338 337 336 337 339 342 341 339 342 340 340 338 343 345 343 346 350 352 351 351 351 350 349
316 321 321 320 321 326 327 328 329 329 329 328 328 328 329 329 329 328 328 329 329 329 329 330 329 330 330 329 328 328 329 329 329 329 330 330 330 330 330 330 330 331 332 333 334 335 335 335 334 334 333 332 331 331 332 333 335 338 338 338 338 337 336 334 335 334 338 339 339 339 340 345 340 341 344 347 345 348 349 347 346 344 346 348 347
316 318 318 319 320 325 326 327 327 327 327 326 326 327 327 327 327 326 326 326 326 326 326 326 326 327 327 327 326 325 325 325 325 326 327 327 327 327 327 327 327 327 328 329 330 331 332 331 331 330 330 329 329 328 328 328 329 330 331 334 334 333 332 329 332 332 335 338 339 338 341 344 339 340 348 348 347 348 349 347 345 346 349 351 352
314 316 316 317 322 324 325 325 326 326 325 325 326 325 325 325 325 325 324 324 324 324 324 324 324 324 324 325 324 324 324 324 324 324 325 325 325 325 325 325 325 325 324 325 326 327 327 327 327 327 326 326 325 326 325 325 325 326 326 326 327 327 326 324 327 327 329 333 337 339 339 340 340 342 350 348 349 349 349 349 349 349 349 350 351
312 313 315 315 316 321 323 324 324 324 324 325 324 323 323 323 323 323 323 323 323 322 322 322 322 322 322 322 322 322 322 321 322 322 322 323 324 324 323 323 323 323 323 324 325 325 326 326 325 325 324 324 323 323 323 322 322 323 323 324 323 322 322 321 318 321 327 330 333 336 339 338 339 344 347 347 348 348 347 348 348 348 349 350 350
309 311 312 312 313 318 320 321 322 323 323 323 322 322 321 322 322 322 321 321 321 320 320 320 320 320 320 320 320 321 320 320 321 321 321 322 322 323 322 322 322 322 322 322 323 323 324 325 324 323 323 322 322 322 322 321 320 322 322 321 321 320 319 316 315 317 323 326 329 332 335 338 338 345 347 346 346 346 346 346 347 347 348 349 349
307 309 309 310 310 311 317 318 319 319 320 320 320 320 320 320 320 320 320 319 319 318 318 318 318 318 318 318 318 319 319 318 318 318 319 319 320 321 320 320 320 320 321 320 320 321 321 322 321 321 320 319 319 319 319 319 320 320 320 320 320 319 318 314 313 313 316 323 327 330 333 336 342 347 345 345 345 346 347 347 347 347 348 348 349
307 307 308 308 308 309 309 314 316 317 317 317 318 318 318 318 318 318 318 317 317 316 316 316 316 315 315 315 315 315 316 316 315 315 316 316 317 318 318 318 318 318 319 319 318 318 319 319 319 319 318 318 318 318 318 319 319 319 318 318 317 317 317 317 311 309 311 316 324 329 330 333 340 345 345 345 345 345 346 346 346 348 348 348 348
306 306 304 306 307 306 307 307 311 313 313 314 314 315 315 316 315 315 315 315 314 314 314 313 313 313 313 312 312 311 312 312 313 312 312 313 313 315 316 316 316 316 317 317 317 317 318 318 317 317 317 317 317 318 318 318 317 316 316 316 315 316 316 316 310 309 311 317 323 329 331 334 339 343 344 344 345 346 346 345 346 346 346 348 347
305 304 303 303 303 304 304 305 306 305 306 309 311 312 313 313 313 312 312 311 311 311 311 311 310 309 309 309 308 308 309 310 310 311 309 309 310 311 313 314 314 315 315 315 316 315 316 316 315 316 316 316 316 316 316 316 315 314 314 314 314 315 315 314 309 310 315 325 324 327 330 335 338 340 341 343 343 343 343 344 344 345 346 346 346
302 302 302 301 301 301 302 304 306 304 304 303 303 307 310 310 310 310 310 309 309 309 307 307 306 306 306 306 307 307 306 306 306 306 307 306 305 305 309 311 312 313 314 313 314 313 314 314 314 314 315 314 313 314 314 312 313 313 312 312 314 315 313 313 313 312 312 313 315 319 323 332 333 338 341 343 343 343 343 343 343 343 344 345 345
301 300 300 301 300 301 301 302 303 303 302 302 302 302 307 307 308 308 307 307 307 306 306 305 304 304 304 304 307 308 305 302 303 303 303 304 303 303 306 309 309 310 311 311 311 311 313 312 312 313 313 311 311 311 311 310 312 311 311 312 314 311 308 306 307 307 308 308 313 313 325 326 327 332 334 337 341 342 342 342 343 342 342 343 344
303 299 299 300 300 300 301 300 301 302 302 301 300 300 303 305 304 304 305 305 304 305 305 305 308 306 304 306 305 301 299 298 298 299 305 302 304 303 304 306 307 307 308 309 309 309 311 310 310 311 310 309 308 309 310 309 309 310 310 313 311 305 304 304 305 306 308 309 311 313 322 321 323 326 328 330 333 334 335 338 340 341 342 342 342
298 298 299 300 299 300 300 300 301 301 301 303 303 303 303 305 301 301 301 302 303 306 302 301 306 301 306 301 298 299 298 297 297 302 299 302 302 304 304 304 306 306 306 307 307 307 309 308 309 309 308 307 307 302 302 307 309 310 312 310 303 302 303 303 304 304 306 306 310 313 317 318 321 323 325 326 327 328 329 330 331 335 338 341 342
297 297 298 299 299 299 299 300 300 300 301 301 303 302 300 299 299 298 301 304 303 301 300 300 300 300 300 297 299 298 298 298 297 301 301 306 302 304 305 303 304 304 304 304 304 305 306 306 307 307 306 305 301 299 300 299 300 305 305 302 300 301 302 303 303 303 303 305 306 314 314 316 317 319 321 322 323 323 325 327 328 330 332 336 339
297 297 297 300 299 299 299 299 300 300 300 300 301 299 298 299 298 300 300 299 300 301 299 299 299 299 300 297 297 298 297 296 304 304 303 298 298 302 304 303 303 304 302 302 303 304 304 304 304 304 305 301 299 299 299 299 299 300 299 299 299 300 301 301 301 301 302 305 306 314 312 314 315 317 319 321 322 323 325 326 328 329 330 331 335
297 298 298 298 298 299 298 299 299 299 299 299 299 298 299 298 298 298 299 298 299 299 298 298 298 298 298 297 298 298 298 296 296 296 295 296 295 295 295 295 295 295 302 294 294 296 297 296 296 298 296 297 296 297 298 298 299 299 298 299 300 300 300 300 300 301 301 302 303 312 311 312 314 316 318 319 319 319 320 321 322 323 324 325 327
298 297 297 297 298 298 298 299 299 299 300 298 299 299 300 297 297 297 297 298 300 297 298 297 297 297 296 297 296 296 296 296 295 295 295 295 294 293 294 294 293 294 295 293 293 293 293 293 294 294 294 295 295 296 296 298 297 297 297 298 299 299 299 299 299 299 300 300 302 311 311 310 312 314 315 317 317 318 319 321 323 323 323 323 325
297 297 297 297 298 298 298 299 298 299 299 298 298 297 297 297 297 297 297 297 297 296 295 295 295 296 296 296 296 294 294 294 294 294 293 294 294 293 292 293 293 292 293 292 293 292 292 293 293 293 293 294 294 295 295 295 295 296 297 297 298 298 298 298 298 298 299 300 303 309 310 310 310 312 314 316 318 318 319 319 320 321 323 324 325
297 297 297 297 298 298 298 298 298 298 298 298 296 296 297 297 298 297 296 298 297 295 295 294 297 294 295 294 296 294 293 292 293 292 293 293 293 293 293 292 292 292 293 293 292 291 291 292 292 292 292 292 292 293 293 293 294 294 294 295 296 297 297 297 298 299 299 299 300 304 308 308 308 310 312 314 316 316 318 319 319 320 321 324 325
296 297 297 296 297 298 298 298 298 298 298 297 295 296 296 296 294 295 294 297 296 295 294 296 294 294 295 294 295 294 293 293 292 292 292 292 292 292 292 291 292 291 292 290 291 290 290 291 291 291 291 291 291 291 292 292 293 293 293 293 294 294 294 295 295 296 297 297 298 300 307 309 308 308 310 313 314 315 316 317 319 320 320 321 322
297 297 296 296 297 298 297 297 297 298 297 297 295 296 295 295 295 295 293 297 294 295 295 294 293 293 293 294 294 293 292 291 292 291 291 292 292 291 291 291 291 291 290 290 290 290 290 290 290 291 291 290 290 291 292 291 292 292 292 293 293 293 293 293 293 293 294 295 296 297 304 306 307 307 308 310 312 314 315 317 317 319 320 320 320
298 297 296 296 297 297 297 297 297 298 296 296 295 295 296 295 296 294 294 295 294 295 295 294 293 292 293 293 293 293 293 292 292 291 290 291 291 290 291 291 290 290 290 290 290 290 290 290 291 290 290 290 290 290 291 291 291 291 292 292 292 292 291 292 292 293 293 294 294 295 297 303 306 307 306 307 309 311 313 315 316 317 318 319 319
297 297 296 296 296 296 296 296 296 297 296 295 297 295 295 295 295 294 294 294 295 293 293 293 294 292 293 293 292 292 292 292 292 291 291 290 290 290 290 290 289 289 289 289 289 290 290 291 291 291 291 290 290 290 291 290 289 290 291 291 291 291 291 291 292 292 293 293 293 294 294 296 301 305 306 306 307 308 310 311 313 314 316 317 318
298 298 297 296 295 296 296 296 296 296 295 295 296 295 295 296 295 294 294 296 294 294 293 293 292 293 293 293 292 292 291 291 291 291 291 289 290 290 289 290 289 289 289 289 290 290 289 289 290 290 289 289 289 289 291 290 289 289 289 290 290 290 291 291 291 291 292 292 292 292 293 295 295 300 303 305 305 307 308 309 310 312 314 315 317
297 297 297 296 296 297 297 296 295 296 295 295 295 294 295 294 294 294 295 294 292 292 293 293 293 292 292 292 292 291 291 290 290 290 290 288 289 289 288 289 288 288 288 289 288 288 288 288 288 288 290 289 287 288 288 288 288 288 288 289 289 289 289 289 290 290 291 291 292 292 292 293 293 294 296 302 305 305 306 307 308 309 310 312 313
298 297 296 296 296 296 297 296 296 295 296 295 295 294 294 294 293 293 293 293 293 292 291 292 291 291 292 291 292 291 290 291 290 289 289 288 288 288 288 288 289 288 287 288 288 288 288 287 287 287 287 287 287 288 288 287 287 287 288 288 288 288 288 289 289 289 290 291 291 292 292 292 293 294 296 295 299 302 304 306 307 309 310 311 312
298 297 297 296 295 295 296 295 295 295 294 295 294 295 294 293 293 295 292 293 291 292 291 291 291 290 291 291 291 290 291 290 290 289 288 288 287 287 287 288 288 287 288 287 288 287 287 288 287 287 285 285 287 286 287 286 286 286 287 287 287 288 288 288 289 289 290 290 290 291 292 292 293 293 297 295 296 298 304 306 306 307 308 308 309
298 297 296 296 295 294 295 295 294 294 294 294 294 293 293 293 293 293 293 293 291 291 290 291 291 291 290 290 291 291 290 290 290 289 287 287 287 286 287 288 288 287 287 287 286 288 286 289 286 288 286 285 285 285 285 285 285 286 286 286 287 288 287 288 288 289 291 290 290 290 291 292 294 298 294 295 296 296 300 305 306 306 306 307 307
298 297 297 296 295 295 294 294 294 294 294 294 294 293 293 293 292 292 293 291 292 291 291 291 291 290 290 290 291 290 291 290 289 289 287 287 287 287 287 288 287 287 286 286 286 286 286 286 285 286 286 285 284 284 284 285 286 286 286 286 286 286 287 287 288 291 289 289 289 290 291 292 293 293 294 295 295 295 296 299 304 305 305 306 307
298 297 297 296 295 295 295 295 294 294 293 294 294 293 293 292 291 291 291 290 291 291 290 290 290 290 289 291 290 290 290 290 289 289 287 287 286 286 286 287 287 286 285 285 285 286 287 285 284 284 285 285 284 284 284 285 286 286 285 285 286 286 287 287 288 288 288 289 290 292 293 292 293 293 294 294 295 295 296 296 296 297 297 303 306
297 296 296 295 295 294 294 294 294 294 293 293 293 292 291 291 290 290 289 290 290 290 291 290 291 289 291 290 290 289 289 289 288 288 287 286 286 286 286 287 286 285 285 284 284 284 284 284 283 284 284 284 286 285 285 284 284 284 285 286 285 285 285 286 286 287 287 288 289 290 291 292 292 293 294 295 295 295 295 294 295 295 296 299 304
296 295 296 295 295 294 294 293 294 294 293 292 292 291 290 290 289 290 289 290 290 290 290 290 290 289 290 290 290 289 289 289 288 287 287 287 286 285 285 286 285 285 284 284 285 284 285 284 284 284 284 283 283 284 284 284 283 282 283 282 283 284 286 287 286 287 287 288 288 289 290 291 290 289 290 293 293 293 292 292 293 294 295 295 297
295 295 295 295 295 294 294 293 294 293 293 293 292 291 291 290 290 290 290 290 290 290 289 289 289 291 290 289 289 289 289 288 288 287 287 286 285 285 285 285 285 284 284 285 285 287 284 283 284 283 284 283 282 284 284 284 281 280 279 280 281 283 284 285 285 286 287 286 285 285 285 285 286 287 288 289 289 290 291 291 292 292 293 294 295
294 294 295 294 294 294 294 293 293 293 293 293 292 291 291 291 291 290 290 289 290 290 289 289 290 289 289 289 289 289 288 288 287 287 287 286 285 284 284 284 285 285 284 283 283 283 283 283 283 282 282 282 283 284 284 284 279 280 281 279 277 277 282 283 285 283 284 285 285 284 285 285 286 287 288 289 288 289 290 291 291 292 293 293 293
294 294 294 294 294 294 293 293 293 293 292 293 293 292 292 291 291 291 291 290 289 290 290 289 289 289 288 289 288 288 288 287 287 287 287 286 285 284 284 284 284 284 284 283 283 282 283 283 283 283 283 280 281 281 284 283 282 280 276 277 277 277 275 279 279 281 283 283 283 284 285 286 285 285 286 286 287 288 289 289 290 291 292 292 292
294 293 294 294 294 294 293 293 293 293 292 293 292 292 292 291 291 291 290 289 289 287 287 286 287 288 288 287 288 288 288 287 287 287 286 285 285 285 283 283 283 284 283 282 282 282 282 283 283 282 281 280 280 280 281 283 282 283 280 276 275 275 275 277 278 279 281 281 282 283 283 284 284 285 286 286 287 287 287 288 289 290 290 291 291
294 294 294 294 294 294 294 293 293 293 292 292 292 292 291 291 289 288 286 286 286 285 285 286 286 286 286 287 288 288 287 287 286 286 286 285 284 284 283 283 283 283 284 283 282 282 282 282 282 282 281 281 281 280 279 282 283 283 283 280 279 274 275 277 276 274 280 282 281 282 282 283 283 284 284 285 285 286 287 288 289 289 290 290 291
294 294 293 293 294 294 294 294 293 292 293 292 292 292 291 290 289 289 288 287 286 286 287 287 287 287 287 287 287 287 287 287 286 285 285 285 284 284 283 283 283 282 283 282 281 281 282 282 283 282 282 283 281 279 279 279 280 281 283 283 282 282 281 278 275 277 275 278 280 280 281 282 283 283 284 284 285 286 286 286 287 287 288 289 290
294 294 293 293 293 293 293 293 293 293 292 292 292 292 290 290 289 288 288 287 286 286 287 287 288 288 287 287 286 286 286 286 285 285 285 284 284 283 283 283 282 282 283 282 281 281 283 283 283 282 282 281 280 279 278 279 277 278 281 280 280 281 281 280 280 277 276 275 277 280 281 281 282 282 283 284 284 284 285 286 286 287 288 288 289
294 294 293 293 293 293 293 293 293 292 292 292 291 291 291 290 289 288 287 287 287 287 287 288 287 287 286 286 285 285 285 285 285 285 284 284 284 283 282 282 282 282 282 283 281 281 281 281 280 281 280 281 281 281 279 278 279 277 278 277 278 278 279 279 279 278 276 275 275 277 278 280 281 282 282 283 284 285 285 286 287 287 287 287 288
295 295 293 293 293 293 292 292 292 292 292 291 291 291 290 290 289 288 287 287 287 287 287 286 285 285 285 284 284 284 284 284 284 284 283 283 283 283 282 281 281 281 282 281 281 281 281 280 280 280 281 280 280 280 280 279 279 279 279 278 277 276 277 277 276 276 277 277 275 276 277 277 276 278 281 282 283 283 284 284 284 284 285 285 286
294 294 293 293 292 292 292 292 292 292 292 291 291 290 290 290 289 288 287 287 287 287 286 285 285 284 284 284 284 283 283 283 283 283 283 283 282 282 281 281 281 282 281 281 280 280 280 280 281 281 280 280 279 279 280 280 280 279 278 278 277 277 276 275 275 276 276 275 275 275 276 277 277 276 279 280 282 282 283 283 283 283 283 284 285
Wind_Speed
1 6 7 9 11 11 11 12 12 13 12 13 15 14 14 14 15 14 14 13 13 13 13 12 12 11 10 10 11 9 9 9 9 9 10 10 11 11 10 10 10 10 9 9 8 8 8 7 7 8 8 9 9 10 10 10 10 8 8 10 10 11 11 10 10 10 8 9 10 11 11 10 10 9 8 7 6 5 3 3 2 2 2 3 6
3 5 6 6 11 10 11 12 12 13 13 13 13 13 13 13 13 13 14 13 14 14 12 14 14 12 12 15 13 13 11 12 12 11 13 12 12 12 11 11 11 10 10 10 9 9 8 9 9 9 10 9 10 11 11 11 10 9 8 9 10 11 11 10 10 9 10 9 9 10 10 12 11 10 8 6 5 5 3 2 2 2 2 5 5
3 6 5 6 9 10 10 11 10 11 12 13 13 13 12 12 12 13 12 13 14 14 14 15 14 13 14 15 15 16 14 15 15 14 14 13 14 14 14 13 12 12 12 12 11 11 10 10 11 10 11 11 11 12 12 12 11 11 10 10 10 10 11 11 10 9 9 10 11 11 10 10 11 10 9 7 4 3 2 3 1 2 3 7 6
3 8 6 8 9 9 10 9 9 10 11 11 12 12 12 12 13 14 13 13 14 14 14 15 16 16 17 16 17 17 17 17 16 17 18 16 17 17 16 15 15 14 14 13 12 14 13 13 13 13 14 14 14 13 12 12 12 12 11 11 11 11 12 11 11 11 9 9 10 12 6 5 8 8 8 5 2 3 4 3 3 2 5 7 7
3 4 5 7 5 6 9 9 9 10 10 11 13 13 12 12 13 13 13 13 13 14 13 13 15 16 17 16 16 16 16 17 16 16 18 18 17 16 16 17 17 15 16 16 16 16 14 13 13 13 15 15 14 14 14 13 13 13 12 12 12 11 11 12 12 12 11 10 11 10 6 6 5 3 2 1 2 5 4 3 3 3 5 6 7
2 4 7 6 4 4 8 8 9 10 10 11 12 13 13 11 11 12 12 12 12 13 11 11 13 14 15 15 15 16 16 16 15 16 15 16 16 16 16 16 16 17 18 18 19 18 15 15 15 15 17 17 15 14 14 14 14 14 15 15 14 14 14 13 13 13 12 12 11 6 6 5 3 3 4 1 4 3 3 3 4 5 6 7 7
3 5 7 6 4 3 7 9 10 10 11 12 12 12 13 13 12 12 12 12 12 11 11 11 12 13 14 14 15 15 16 15 15 14 15 14 15 15 15 15 15 16 18 18 18 18 17 18 18 18 19 17 17 16 16 15 14 15 15 15 15 15 14 14 14 14 13 10 5 6 6 4 4 3 5 8 6 6 5 7 9 8 8 8 8
2 5 7 5 3 5 9 10 10 11 12 12 12 12 12 12 12 12 12 12 12 12 12 11 11 12 12 13 14 14 14 15 15 15 15 15 14 14 15 15 15 15 16 16 16 16 17 16 16 18 18 16 15 16 16 16 16 16 15 16 16 16 15 15 14 14 14 7 6 5 5 3 2 3 7 10 9 8 8 8 9 10 10 10 9
4 6 7 5 4 7 9 10 11 11 12 12 12 12 12 12 12 12 12 12 12 12 12 12 12 12 13 13 13 13 14 14 14 15 15 14 14 14 15 15 15 15 14 14 15 15 16 16 16 15 14 14 14 14 14 14 14 15 15 15 15 16 16 17 15 14 7 5 7 5 3 3 3 3 4 7 7 6 8 8 7 10 11 9 7
4 8 6 4 4 8 9 10 11 11 12 12 12 11 12 12 12 12 12 12 12 12 12 12 12 12 13 13 13 13 14 14 14 14 14 14 14 14 14 14 15 14 14 14 15 15 15 15 15 14 15 14 14 13 13 13 13 13 13 13 13 14 15 16 16 11 6 6 7 7 6 6 3 3 6 8 4 4 5 6 6 6 5 6 5
6 8 6 5 4 9 10 10 11 11 12 12 12 12 12 12 12 13 13 12 13 12 12 12 13 13 13 13 14 14 14 14 14 14 14 14 14 14 14 14 14 14 14 14 14 14 14 14 14 14 14 14 14 14 13 13 13 12 13 12 12 13 13 14 12 6 8 8 7 7 6 9 4 2 4 4 4 5 4 6 6 8 9 10 11
7 7 6 4 6 9 10 11 11 12 11 11 12 12 12 12 12 12 13 13 13 13 13 13 13 13 14 14 14 14 15 15 15 15 15 15 14 14 14 14 14 14 14 14 14 13 13 13 13 13 12 12 12 12 13 13 12 12 12 12 12 11 12 13 7 6 7 9 9 7 6 6 6 5 10 9 7 7 7 7 9 11 13 13 13
7 8 7 4 4 9 11 12 12 11 12 12 12 12 12 12 12 12 13 13 13 13 13 13 13 13 14 14 14 14 14 15 15 15 15 15 15 15 14 14 14 14 14 14 14 14 13 13 13 13 13 12 12 12 12 12 11 11 11 11 10 11 11 10 5 6 5 6 8 9 7 5 5 8 10 10 7 6 7 8 9 10 12 13 13
6 7 7 5 4 9 13 13 12 12 12 12 12 12 12 12 12 12 13 13 13 13 13 13 13 13 13 14 14 14 14 14 14 14 14 15 14 14 14 14 14 14 14 14 14 14 14 14 14 14 14 14 13 13 12 12 12 11 12 12 11 11 11 6 6 4 5 5 6 8 8 6 4 7 7 9 10 10 8 8 9 10 11 12 12
6 7 8 6 5 5 12 12 12 12 12 12 12 12 12 12 12 12 13 13 13 13 13 13 13 13 13 13 14 14 14 14 15 15 14 15 14 14 14 14 14 14 13 14 14 14 14 14 14 14 14 14 14 14 14 13 12 12 13 13 13 12 12 6 5 4 5 5 5 6 6 5 9 11 12 11 12 11 10 9 9 10 10 11 11
6 6 7 7 6 5 4 9 11 12 12 12 12 12 12 12 12 13 13 12 13 13 12 12 12 12 13 13 14 14 14 14 15 15 15 14 15 15 14 14 14 14 14 13 14 14 14 14 14 14 14 14 14 14 14 13 13 13 14 13 13 13 12 8 6 6 6 6 5 4 5 5 10 12 11 9 10 11 11 11 11 11 10 10 11
6 6 6 8 7 6 6 4 8 13 12 11 11 11 12 12 13 13 12 12 12 12 12 12 11 11 12 12 13 13 13 14 14 15 15 15 14 15 14 14 14 14 13 13 14 14 14 14 14 14 14 14 14 14 13 12 12 13 14 14 15 15 13 11 6 6 6 6 5 4 3 4 6 10 11 11 12 12 13 14 14 14 12 11 10
5 6 6 6 7 7 6 6 6 6 5 7 10 11 11 12 12 12 12 12 12 12 12 11 11 11 10 11 12 13 13 13 13 14 15 15 15 14 14 15 14 14 13 13 13 13 13 13 14 14 14 15 15 14 12 12 12 13 13 14 15 15 14 13 4 5 5 5 6 6 6 9 13 14 13 12 13 13 14 14 15 15 15 14 13
4 5 5 6 6 8 8 7 6 7 7 5 3 6 11 11 11 11 11 12 11 11 11 11 9 9 8 7 8 11 11 10 10 11 11 13 13 12 13 13 13 14 13 13 13 14 13 13 14 13 13 13 14 14 13 13 14 13 14 14 14 13 14 8 5 7 8 8 8 7 6 15 16 16 16 16 15 15 15 15 16 16 16 16 15
4 4 5 5 5 6 5 5 5 5 6 6 5 4 7 10 10 11 11 10 9 9 8 8 7 3 2 2 2 6 7 6 8 4 7 7 9 7 10 11 12 13 12 12 12 14 13 13 14 14 13 14 13 13 13 15 14 15 15 15 13 12 6 7 7 7 6 6 6 7 7 15 16 16 16 17 18 17 17 17 17 17 17 17 17
3 4 4 5 5 6 6 5 4 5 6 6 5 4 6 10 8 10 9 9 8 7 7 5 4 2 1 4 3 3 5 3 3 1 3 1 4 5 8 10 12 14 14 12 13 14 13 13 14 14 13 15 13 13 11 14 14 14 15 14 12 7 7 6 6 5 5 6 6 6 14 16 17 16 16 16 17 17 17 18 18 18 18 19 18
6 5 5 5 5 5 5 5 5 5 5 5 4 4 5 7 6 4 4 4 4 6 3 3 4 1 2 4 3 2 4 3 2 2 1 1 1 4 5 9 12 13 14 13 14 15 14 14 14 14 13 14 13 6 6 8 11 12 11 12 8 6 6 7 6 6 5 6 6 7 14 15 15 16 15 16 15 17 17 18 18 18 19 18 18
7 6 6 7 6 6 5 6 5 5 5 4 5 5 5 4 5 4 4 5 3 3 3 3 2 1 1 4 3 1 2 3 2 2 0 1 1 3 5 11 13 13 14 13 15 14 14 14 14 14 14 12 6 6 6 6 6 9 9 7 6 6 6 7 6 6 7 6 6 9 15 16 16 16 16 16 16 16 17 18 18 18 17 18 19
9 8 7 6 7 7 6 7 7 6 6 6 5 6 6 6 6 5 6 5 4 4 3 3 2 1 2 3 2 1 3 4 4 7 6 5 6 8 10 10 11 10 15 7 12 12 15 13 13 13 8 5 5 6 6 6 6 6 6 6 6 6 6 6 6 6 6 6 6 12 16 16 17 17 17 16 16 16 17 17 18 18 18 18 18
8 8 7 8 8 8 7 8 7 6 6 6 6 6 6 5 5 5 5 5 4 5 4 3 2 2 3 2 1 1 4 4 4 4 5 6 6 6 6 6 6 5 8 5 7 6 7 6 6 6 7 6 6 6 5 6 5 5 5 5 5 5 5 6 6 6 6 6 7 12 16 17 17 18 17 17 17 17 18 18 19 19 19 19 19
9 9 10 9 9 9 8 8 7 6 6 6 6 6 6 5 5 4 4 4 3 3 4 4 4 2 3 2 1 2 5 4 4 4 5 6 6 6 6 5 5 4 6 6 6 6 6 6 6 6 7 7 6 6 6 5 6 6 5 4 5 4 5 6 6 6 6 6 6 11 14 16 16 17 18 19 19 18 18 18 18 19 19 20 19
10 9 9 8 9 9 8 8 8 7 6 6 5 6 5 6 5 5 4 5 4 4 4 5 3 2 2 2 3 3 4 4 4 4 5 5 5 5 5 4 4 5 6 6 6 6 6 6 6 6 7 7 7 7 6 6 6 5 5 5 4 5 5 6 5 6 6 6 6 11 12 14 17 18 19 18 19 19 19 19 19 19 19 19 20
8 9 9 9 10 10 10 10 8 7 6 6 6 6 5 6 5 4 4 6 5 4 4 5 4 4 3 3 2 3 3 4 4 4 4 4 4 4 3 4 5 4 5 6 6 6 6 6 6 6 6 6 7 7 6 6 6 5 5 5 5 5 5 6 6 5 6 6 6 8 11 14 16 17 18 20 20 19 20 20 20 20 19 19 20
10 10 9 10 11 10 11 11 9 9 7 7 7 6 6 6 6 5 4 4 4 5 6 4 5 5 3 3 3 3 3 4 4 4 4 3 3 3 3 4 4 4 5 5 5 6 6 6 6 6 6 6 6 7 6 6 6 6 6 6 6 6 5 6 5 5 5 6 6 7 11 13 16 17 18 19 20 20 20 20 20 21 20 20 20
11 10 11 9 10 11 12 12 11 10 8 7 7 7 7 7 6 5 6 4 4 6 5 4 6 6 4 3 2 3 4 4 4 3 4 2 3 3 3 3 3 3 5 5 5 6 6 6 5 5 5 6 6 7 6 6 6 6 6 6 6 7 6 6 7 7 7 6 6 6 10 12 14 17 18 18 19 20 20 20 20 20 21 21 21
11 11 11 10 10 12 11 11 11 9 8 8 7 8 8 7 6 6 6 5 6 5 5 5 4 6 5 3 4 2 4 4 4 3 3 2 3 3 2 3 3 3 5 5 4 4 4 5 5 4 5 6 6 6 7 6 6 6 6 6 6 6 7 7 7 7 7 7 7 7 8 13 12 14 16 18 19 19 20 20 20 20 20 21 21
13 13 11 10 11 12 13 11 12 10 10 8 7 8 8 7 6 7 7 6 6 6 5 6 6 6 4 3 4 3 3 5 3 3 1 2 3 2 2 3 3 5 4 3 5 4 4 4 4 4 4 4 5 6 6 6 6 7 6 6 6 7 7 7 7 7 7 7 7 7 7 8 12 13 14 17 19 18 18 19 19 20 20 20 20
9 12 12 11 13 13 13 12 12 10 11 9 9 8 8 8 7 7 6 6 6 6 6 6 6 6 4 4 4 3 3 5 4 2 1 3 3 2 2 2 2 4 3 4 4 3 4 5 4 4 5 5 6 6 5 6 7 7 7 7 7 7 7 6 7 8 8 7 7 7 7 6 6 10 13 14 17 18 19 19 18 18 19 19 20
10 9 11 13 11 9 9 9 11 11 11 8 8 8 7 8 7 7 6 7 6 6 6 6 7 6 6 4 4 3 3 5 3 3 1 3 2 2 3 2 4 4 3 4 4 5 5 5 4 5 5 5 5 5 6 7 6 6 6 6 6 7 7 8 8 8 8 8 7 7 7 6 6 6 5 9 10 14 18 19 20 20 19 19 20
9 10 15 14 12 11 9 9 10 11 10 9 9 8 7 7 7 7 7 6 6 6 7 6 6 7 7 6 5 4 4 4 3 2 3 2 2 3 2 3 4 3 3 3 4 4 5 3 5 5 5 4 5 5 5 6 6 7 6 6 6 7 7 8 9 9 8 8 7 6 6 6 6 6 5 6 7 10 14 17 18 19 20 19 19
14 13 12 12 13 12 11 10 11 12 9 9 8 8 9 7 7 7 7 5 7 7 7 7 6 7 7 6 5 4 4 4 4 2 3 3 2 3 2 4 3 2 2 3 3 5 4 3 3 4 4 4 5 6 6 6 6 7 7 6 7 7 8 8 9 9 9 7 7 6 6 6 6 6 6 6 6 7 11 14 16 18 19 19 20
13 13 14 13 13 13 12 12 13 13 11 10 9 7 8 8 7 8 8 5 7 7 7 7 7 6 7 7 6 6 4 4 4 3 3 3 3 3 1 2 2 1 1 2 3 3 3 3 3 3 3 6 5 6 6 6 6 7 7 8 8 8 8 8 9 9 8 7 6 7 6 6 5 6 6 6 6 6 7 11 13 17 17 17 19
12 13 14 15 15 13 12 11 11 11 10 10 9 9 8 7 6 7 7 6 5 6 7 7 6 7 6 7 7 6 6 5 4 4 3 3 3 1 1 0 1 0 1 2 4 3 3 3 3 2 4 5 6 6 8 7 6 6 7 8 9 8 8 9 9 9 7 7 6 6 6 6 5 6 6 5 6 6 6 8 12 13 13 13 17
11 13 13 12 11 11 10 11 12 11 10 9 8 8 7 6 6 6 7 5 4 6 6 7 7 7 6 7 7 6 6 5 4 4 3 3 3 2 1 1 1 1 1 2 3 3 2 3 4 5 3 4 6 7 7 7 7 7 8 10 9 9 9 9 9 8 6 6 6 6 5 6 6 6 6 6 6 6 6 5 5 5 6 12 14
11 12 13 13 12 11 9 10 10 11 9 9 8 8 7 7 8 6 6 6 5 5 6 7 6 7 6 7 7 5 6 5 5 4 4 3 2 2 2 1 1 2 2 2 2 1 2 3 3 4 6 6 5 7 6 6 6 8 9 8 9 10 11 11 10 8 6 6 6 6 6 6 6 5 5 5 5 5 4 5 5 7 6 8 13
11 12 13 13 14 15 13 14 12 12 11 11 10 10 10 8 5 8 9 7 8 6 6 6 7 6 6 7 6 5 5 5 5 5 4 4 3 2 3 2 2 3 3 2 0 2 2 2 3 3 4 7 5 4 5 5 7 7 5 8 9 8 11 11 10 7 7 6 5 6 5 5 6 8 8 6 5 4 5 7 7 6 7 7 8
11 13 15 15 14 14 15 13 11 12 11 11 11 10 9 11 11 10 8 8 8 9 7 6 6 5 7 6 6 5 5 5 5 5 4 4 4 3 2 2 2 2 1 0 1 1 2 3 2 3 2 4 6 5 8 6 3 7 12 13 10 7 7 9 6 1 3 7 9 10 8 8 7 7 6 7 5 5 5 6 7 7 8 7 6
14 15 14 14 13 14 13 12 12 12 11 11 10 11 8 7 7 7 8 6 4 4 5 5 5 6 7 6 6 6 6 5 6 5 5 4 4 3 2 2 1 1 0 1 1 2 1 2 2 3 5 3 4 5 6 3 4 5 7 7 7 11 4 6 1 8 14 11 8 6 7 6 7 5 5 6 7 7 5 5 7 8 7 6 8
12 11 12 15 12 12 12 13 13 12 11 11 11 9 9 7 6 7 7 7 7 6 5 6 6 7 7 6 6 6 6 6 6 5 5 4 4 4 3 2 1 1 1 0 1 2 2 3 3 3 2 5 3 3 3 4 2 5 6 2 8 5 9 0 8 10 13 11 4 5 3 5 8 8 8 7 6 5 6 7 9 9 9 9 8
13 14 14 14 11 14 14 14 13 13 11 11 12 10 10 8 7 7 6 7 6 6 6 6 6 6 6 7 7 6 7 7 6 6 6 5 4 4 3 2 2 1 1 1 2 3 3 3 2 2 3 4 6 3 3 3 4 2 2 4 5 2 2 11 15 11 3 2 6 9 7 8 5 5 5 6 6 7 8 9 8 9 10 10 10
13 13 13 13 12 12 13 13 12 12 12 13 14 12 12 12 11 11 10 7 8 9 11 12 10 10 9 7 7 7 7 6 6 6 5 4 4 4 3 3 2 2 3 4 3 3 3 3 3 3 4 4 4 6 5 3 4 4 4 6 5 6 10 7 3 9 5 9 11 6 4 4 4 5 6 8 8 8 6 8 8 10 10 10 10
13 11 11 12 13 13 14 14 13 12 12 12 13 11 11 11 14 14 13 14 13 8 6 6 8 7 7 9 8 7 7 7 6 6 5 5 4 4 4 4 3 3 3 3 3 3 3 3 3 3 3 3 3 6 6 5 4 4 5 6 7 7 6 6 6 9 19 5 6 3 3 4 5 6 7 7 8 9 9 9 11 11 11 9 10
12 11 11 12 15 15 14 15 12 12 11 11 14 13 13 12 12 11 10 10 11 10 10 9 8 8 9 8 7 7 7 7 7 5 6 5 5 4 4 4 4 3 3 3 3 3 3 3 2 3 3 4 4 6 6 5 4 3 2 4 4 4 5 6 6 7 9 15 24 4 7 7 5 4 6 11 10 10 11 9 10 10 8 9 9
12 14 14 14 13 12 13 13 13 12 12 13 14 13 12 12 12 11 10 7 8 7 7 7 8 9 9 7 8 7 7 7 7 6 6 6 5 5 4 4 4 4 3 3 3 3 4 4 3 3 3 4 4 4 5 6 4 6 3 4 4 5 5 4 5 4 5 10 18 18 19 7 6 7 10 7 7 8 8 9 9 9 10 10 11
12 11 11 11 12 12 13 15 14 12 12 14 14 14 13 11 12 12 12 9 8 7 8 9 8 8 9 8 7 7 7 7 7 6 6 6 5 5 4 4 4 3 3 3 3 3 3 3 3 3 4 5 4 5 6 6 6 5 4 4 4 4 4 4 4 5 7 7 12 20 18 21 24 7 0 10 11 6 9 9 10 11 10 11 12
10 11 12 12 12 13 13 15 15 12 13 14 15 15 13 12 12 12 13 12 11 10 10 9 8 8 8 8 8 7 7 7 7 6 6 6 5 5 5 4 4 3 3 4 4 4 4 4 5 4 5 5 5 5 6 6 5 5 5 5 6 6 6 6 6 5 5 6 9 15 16 16 17 24 13 5 10 10 10 10 11 11 10 12 12
Wind_Direction
44 90 68 47 50 51 57 57 56 54 53 55 53 50 51 55 56 58 59 54 53 50 47 56 57 54 61 59 53 59 62 60 55 64 57 51 47 42 34 31 28 25 21 20 25 25 23 22 24 28 35 30 23 26 18 5 6 5 357 356 360 4 4 357 356 353 354 351 345 342 335 320 306 297 295 295 302 319 346 328 283 300 312 313 323
150 78 79 56 54 54 54 55 55 56 56 59 60 57 54 55 54 53 51 52 52 51 51 56 56 48 55 59 57 57 64 67 65 55 55 50 51 46 41 38 30 24 21 21 26 26 26 25 25 29 35 35 30 24 23 9 12 10 7 357 356 357 359 356 353 350 346 343 337 330 323 313 298 285 276 273 284 305 334 354 286 276 301 310 332
118 99 85 68 58 65 63 58 59 59 62 63 64 61 60 58 57 51 51 51 52 50 49 54 57 60 58 59 61 59 54 61 60 60 61 53 52 46 42 40 35 32 27 26 24 26 26 31 37 35 44 40 34 30 24 21 14 7 5 359 355 354 353 353 349 345 343 336 329 322 315 303 290 271 258 258 264 315 1 23 354 268 282 301 318
92 108 101 79 59 66 67 71 67 67 66 66 65 65 63 62 60 54 56 56 55 52 50 51 50 50 51 52 51 51 51 54 61 59 55 53 52 45 43 42 40 39 37 37 35 33 28 34 42 48 47 42 36 32 28 23 20 18 7 2 356 354 351 350 346 343 339 335 322 318 307 293 286 268 242 236 271 345 57 22 355 280 277 300 309
108 99 112 83 64 53 80 78 79 75 71 68 68 68 65 66 63 56 53 54 49 49 51 53 50 48 50 50 49 49 48 46 45 49 49 46 45 42 35 33 35 36 42 40 40 39 37 34 44 47 47 43 38 30 27 25 22 21 15 11 3 360 352 350 351 346 342 332 320 312 296 285 281 292 160 136 340 10 33 21 334 315 304 303 308
103 100 93 90 75 57 85 88 88 86 81 74 73 72 70 72 73 67 64 62 60 56 52 54 49 49 51 50 50 49 50 48 45 45 46 44 42 36 35 30 28 25 31 32 33 35 39 44 45 49 47 36 35 34 31 29 23 22 22 19 15 13 10 2 355 347 338 328 312 297 285 273 310 82 124 119 340 19 19 343 329 325 325 317 309
64 78 83 92 77 61 84 95 94 92 87 84 79 76 75 75 76 74 72 68 65 62 59 60 57 53 54 52 52 53 53 52 50 51 50 46 44 38 35 34 30 27 29 27 26 28 28 32 30 33 41 34 26 29 28 30 24 25 22 16 13 12 9 5 0 349 333 321 298 292 297 340 357 3 345 347 353 358 357 344 337 334 332 326 329
130 97 88 72 79 82 95 96 94 88 86 85 83 82 81 80 79 79 76 74 72 71 69 68 65 63 60 57 55 54 54 54 55 55 52 52 50 46 43 40 35 33 32 30 29 26 30 33 26 26 33 31 26 23 22 21 17 23 24 13 12 8 6 0 354 340 321 311 296 276 278 315 348 30 356 332 347 356 358 356 351 344 343 2 12
135 107 101 96 82 86 94 94 91 89 88 86 86 86 84 84 81 79 78 76 74 71 70 69 68 65 62 60 58 55 54 54 53 51 50 50 48 46 44 41 39 36 33 32 31 30 30 32 34 31 33 33 29 27 23 18 14 13 17 16 11 7 2 356 347 333 315 296 296 303 338 2 4 357 291 304 315 353 355 10 3 346 340 343 345
97 74 80 86 87 90 90 92 94 94 93 90 88 87 86 84 83 81 78 75 73 72 71 68 66 63 62 59 56 55 54 54 53 51 50 49 47 45 41 40 38 36 34 31 32 32 32 32 31 28 28 29 28 25 24 22 21 21 20 18 13 7 1 353 342 333 321 319 318 324 330 342 333 310 310 318 335 357 359 11 355 344 327 318 317
110 97 85 72 77 104 103 98 96 95 93 92 89 86 84 82 81 80 78 74 72 71 69 68 64 63 60 58 56 53 53 53 52 51 49 48 46 44 41 37 35 32 31 30 29 29 30 31 29 27 27 24 22 19 18 18 18 18 16 16 16 10 4 351 340 332 326 319 316 317 323 329 316 312 41 14 348 336 10 7 349 333 329 329 325
102 100 98 87 76 97 102 103 99 94 93 93 90 88 85 82 80 79 76 75 72 70 67 66 64 62 60 58 55 53 51 51 49 49 47 45 44 41 40 37 33 31 29 27 24 24 25 25 24 25 24 21 17 14 12 11 9 12 12 11 10 8 4 350 339 335 326 322 320 317 326 331 331 330 331 343 353 353 1 351 342 338 334 332 331
112 111 111 96 62 89 95 93 92 94 94 91 90 89 88 86 83 81 80 78 75 72 70 67 66 65 63 61 58 55 53 50 49 48 45 43 41 40 37 34 32 29 26 24 23 21 20 20 20 18 18 16 12 9 6 4 3 5 4 5 5 2 359 350 342 325 315 321 320 321 319 318 315 315 312 315 337 347 340 340 336 336 334 332 332
110 112 102 97 88 78 86 90 93 95 95 94 92 91 90 88 87 84 82 80 77 76 74 72 70 68 66 64 61 59 56 53 50 48 46 43 42 40 38 35 33 30 27 24 22 19 18 17 16 14 11 9 5 3 2 359 358 1 1 359 357 353 351 343 335 314 312 310 311 308 311 302 291 296 319 318 316 317 330 335 334 333 332 330 330
113 114 130 134 110 88 87 90 93 95 95 95 94 92 89 88 87 85 83 80 78 76 74 73 72 70 67 64 61 59 56 54 51 47 45 43 40 39 38 37 34 31 29 27 24 21 18 16 15 12 8 5 1 359 357 356 358 2 360 355 352 345 340 332 324 306 297 289 280 286 297 317 320 323 321 315 313 318 332 334 330 326 326 329 327
124 141 136 127 126 114 96 93 95 94 93 93 93 93 93 91 88 84 82 79 77 75 74 72 70 70 69 64 61 58 56 54 51 48 44 41 39 36 36 35 33 30 29 27 25 22 18 16 14 10 6 4 1 359 357 358 360 1 357 353 345 338 329 326 310 300 288 282 282 284 298 316 313 320 335 327 318 318 316 318 319 321 321 320 322
142 142 124 136 143 126 130 118 104 95 91 93 94 96 97 95 92 90 85 83 79 75 74 70 68 67 68 66 62 58 56 53 50 47 43 39 37 32 32 31 31 28 27 26 24 21 18 15 12 9 6 4 2 1 2 1 1 358 355 350 342 335 327 321 301 292 301 296 284 283 294 280 339 348 336 332 328 322 318 317 317 314 315 316 318
150 138 138 141 140 139 129 140 132 117 107 91 94 99 98 98 97 93 91 86 80 75 70 66 63 63 63 65 64 59 54 51 48 44 41 36 30 26 25 27 26 24 23 22 21 19 17 14 12 9 6 3 1 2 2 1 359 356 352 346 339 333 326 325 303 283 289 317 338 340 331 7 360 352 341 330 323 317 316 317 316 317 315 312 312
154 149 143 153 148 139 153 164 160 147 138 120 100 98 102 100 97 92 90 86 82 80 75 69 66 64 64 71 83 83 66 56 55 49 46 41 33 22 19 24 24 21 18 18 17 15 13 13 10 9 7 5 2 1 2 2 359 357 353 346 335 331 330 334 351 358 355 348 344 342 336 7 358 351 350 345 336 326 322 320 318 315 315 313 309
170 151 154 156 150 141 144 142 143 143 123 125 124 117 108 106 100 97 92 89 88 88 89 90 79 68 103 93 132 113 93 68 57 58 60 52 44 29 20 24 25 22 18 16 16 13 11 9 8 7 7 7 4 2 7 1 359 357 354 344 336 336 344 6 359 349 336 328 324 325 345 354 349 344 339 338 338 336 334 331 325 319 316 314 311
166 167 161 164 148 147 148 149 147 129 127 133 136 134 133 116 109 108 105 104 100 95 96 102 144 92 313 144 118 100 104 101 97 43 77 96 84 37 25 23 26 22 17 15 16 14 11 10 9 7 11 10 10 357 7 358 358 358 351 341 345 359 5 353 344 328 327 325 329 331 339 342 340 337 333 331 331 328 324 325 326 324 319 312 310
171 181 176 164 157 157 155 144 136 136 137 139 146 153 174 150 147 144 134 115 116 116 92 90 61 355 351 79 71 35 112 109 111 80 81 46 32 39 16 23 23 20 14 14 13 10 8 10 9 8 13 11 5 355 357 349 346 349 347 344 357 1 351 345 340 338 334 337 341 335 335 334 333 331 327 325 323 321 319 317 314 315 315 315 313
178 180 185 167 168 162 158 143 150 148 145 155 160 167 164 132 133 124 130 132 122 89 104 86 75 354 359 78 73 348 75 96 89 12 351 350 42 30 9 26 20 21 11 18 13 8 8 7 6 7 8 3 358 352 352 346 342 346 348 351 357 348 344 341 342 341 337 330 335 327 335 334 330 327 323 320 317 315 313 312 311 310 309 311 315
177 178 177 167 167 164 170 151 159 156 152 165 167 169 153 155 155 162 155 152 147 131 106 96 83 30 25 68 73 329 60 59 48 29 39 39 24 22 21 28 11 19 10 16 12 0 360 359 2 2 355 353 349 347 347 340 339 344 342 346 348 339 344 344 338 333 332 329 332 331 333 329 327 325 323 321 319 318 316 313 313 311 310 309 308
171 162 165 175 173 164 171 151 154 164 166 168 174 167 162 154 150 157 144 142 158 146 134 118 106 77 29 87 107 36 80 69 57 40 39 40 33 22 17 21 7 17 9 15 16 356 350 352 355 352 353 349 348 341 339 335 336 338 336 331 336 340 340 333 326 328 327 331 324 325 325 323 323 323 323 322 320 318 315 312 309 307 306 306 305
161 171 175 173 174 169 164 154 157 176 173 171 172 157 149 140 150 145 143 120 131 132 134 127 98 51 80 350 90 63 69 73 68 51 48 47 43 22 15 19 6 13 14 7 14 360 349 349 351 356 347 346 342 337 332 344 334 326 325 327 334 333 328 320 322 319 316 314 315 313 318 317 316 318 318 318 318 317 315 313 310 308 306 304 303
173 178 165 172 170 166 158 156 164 173 173 173 144 141 164 146 146 150 142 144 146 138 116 105 94 78 55 35 50 49 69 66 60 54 57 52 47 32 7 24 5 20 12 8 10 360 350 349 350 354 347 344 340 333 339 340 328 330 330 330 324 323 319 315 311 306 302 307 306 307 307 314 315 314 314 313 313 313 313 313 311 309 307 304 302
167 171 168 168 173 166 161 159 166 167 180 162 140 161 170 138 137 136 144 150 143 126 116 120 133 99 62 36 10 77 81 76 52 54 54 54 51 32 9 27 10 24 17 11 14 2 348 347 344 353 346 343 338 331 342 331 332 338 332 324 325 326 321 314 305 302 301 297 294 294 298 303 306 306 309 310 309 309 308 309 310 310 307 305 303
174 175 167 164 175 163 162 166 165 169 175 156 161 165 148 128 134 155 135 157 141 136 137 157 136 116 100 66 27 58 69 80 59 55 64 56 53 43 30 32 13 27 29 6 21 3 349 339 340 347 341 338 332 325 333 328 332 331 330 326 331 329 326 313 308 306 299 292 290 289 289 291 300 303 303 304 305 307 307 306 306 307 308 307 305
178 168 167 169 168 163 166 171 167 168 169 165 170 155 149 146 165 156 143 168 146 137 157 155 137 129 119 108 59 72 76 81 68 52 77 64 60 46 34 34 23 30 35 15 14 8 338 330 330 332 334 330 325 319 328 324 325 326 322 327 327 325 318 320 317 315 307 302 291 285 287 291 293 300 302 303 304 306 307 307 307 306 307 308 307
163 175 171 166 169 163 170 173 166 165 166 171 166 154 153 156 163 143 153 166 140 149 168 138 125 113 121 127 110 76 91 80 89 66 67 71 76 58 35 40 25 31 40 16 3 343 313 301 302 316 324 316 307 312 314 315 317 317 319 321 315 318 316 310 308 306 307 305 304 302 301 302 300 300 303 304 306 306 306 308 308 308 307 306 307
171 178 173 161 166 170 169 173 167 166 165 172 158 154 159 156 154 145 164 152 152 172 153 142 128 116 126 134 111 87 107 117 111 96 113 91 87 69 49 56 21 43 34 7 330 303 293 285 307 327 315 306 313 312 306 319 317 312 314 315 313 314 305 302 303 300 297 297 297 298 299 301 304 303 305 307 308 310 309 308 308 308 308 307 307
178 171 168 163 171 170 171 173 166 164 168 168 163 155 155 151 154 158 154 149 168 156 149 149 134 134 134 123 116 144 130 120 118 124 128 107 101 89 70 61 53 57 26 335 319 326 334 327 323 335 330 334 321 316 325 325 315 315 317 314 315 307 302 305 301 298 290 287 287 287 285 289 292 300 303 307 308 311 314 314 313 311 310 309 308
171 170 162 173 170 168 171 166 166 165 170 161 161 152 151 149 154 147 143 154 170 155 155 148 138 141 135 132 135 125 118 108 117 127 107 103 115 111 88 46 67 50 7 338 351 344 317 315 331 343 325 322 320 320 326 318 307 303 308 300 304 299 303 300 295 290 288 285 284 283 286 288 289 292 295 298 305 309 311 313 312 312 310 308 308
164 173 177 171 165 170 170 169 165 165 169 159 161 154 146 153 157 145 151 170 163 155 152 144 145 145 140 149 138 132 112 114 117 130 135 134 111 86 62 72 66 43 8 348 341 316 304 320 341 328 319 325 318 313 312 300 299 299 295 303 296 296 293 289 287 283 280 279 278 279 283 285 290 294 297 294 293 297 296 296 302 308 310 309 309
179 175 167 164 170 171 172 164 162 167 173 160 159 153 153 156 155 147 155 175 159 156 161 149 159 151 144 145 138 132 130 133 139 136 132 110 110 86 73 57 63 47 7 331 321 303 307 329 318 314 326 317 317 307 301 300 301 300 298 296 291 287 284 279 277 276 274 280 281 283 279 277 278 281 282 283 281 281 278 286 296 303 306 306 307
175 168 169 168 169 172 172 164 167 168 171 159 155 151 153 154 156 152 159 162 160 158 156 151 154 147 142 142 146 146 144 142 144 139 135 130 88 88 65 89 80 68 308 286 280 282 309 302 300 319 343 313 312 301 304 301 297 292 292 288 286 285 281 276 272 271 274 273 279 279 279 274 268 266 267 267 276 273 279 285 291 296 297 296 298
176 171 169 170 172 171 172 168 165 166 167 159 157 153 151 151 148 146 150 163 161 159 155 151 156 156 150 145 147 150 152 152 146 142 109 98 107 114 157 129 123 150 234 261 261 271 273 277 320 334 338 316 311 310 301 293 288 289 291 290 286 282 276 276 272 274 274 273 269 269 266 269 271 266 267 272 271 272 278 280 283 286 287 288 292
174 170 168 167 165 167 167 167 165 165 163 155 148 147 144 140 133 136 148 167 168 164 154 156 164 158 155 143 144 151 151 147 142 130 136 130 131 133 130 191 153 184 224 245 261 271 305 14 358 323 323 305 293 287 282 286 295 298 297 292 286 279 277 271 273 273 268 258 259 256 262 266 264 264 264 268 264 271 271 274 283 290 284 285 286
168 167 167 166 166 166 166 165 168 163 157 155 151 152 149 156 152 146 156 171 177 169 165 164 169 156 154 139 145 156 150 148 144 141 130 132 141 164 159 144 192 202 216 240 261 329 1 351 340 337 317 301 280 276 283 299 294 294 291 290 288 289 282 277 275 271 268 270 264 268 266 264 274 276 283 274 276 282 289 300 302 294 290 287 285
169 167 167 173 171 172 167 174 171 168 165 165 167 165 163 161 159 174 176 175 174 171 171 170 166 163 146 141 146 153 144 142 144 138 152 155 150 171 182 190 198 203 210 223 165 12 8 342 316 320 305 300 294 289 298 306 304 296 279 288 292 275 272 275 271 274 272 278 299 308 301 315 308 305 297 291 296 305 308 304 300 298 297 296 289
177 168 174 178 174 172 176 172 172 174 175 173 170 173 176 177 171 177 166 173 171 173 175 180 166 155 143 144 145 156 147 147 153 148 157 155 161 166 164 181 179 219 220 112 3 331 310 297 288 305 257 291 298 313 303 328 328 353 334 329 320 309 278 263 266 298 346 325 309 301 298 293 289 289 284 293 296 295 299 297 294 294 293 291 295
174 178 177 176 175 175 177 174 177 176 177 172 172 177 172 170 167 166 165 164 173 155 153 161 152 143 146 146 153 156 154 159 155 155 156 162 168 155 162 175 194 176 27 358 1 323 299 294 275 264 299 284 285 288 290 8 306 333 299 293 317 330 331 294 344 1 324 300 290 285 284 280 287 286 294 305 301 295 293 298 297 294 294 297 301
178 179 177 180 177 178 178 177 180 179 177 175 175 172 166 159 153 150 159 154 164 156 144 149 149 139 153 156 162 161 161 164 159 158 158 158 162 164 160 159 206 166 162 250 297 271 275 280 271 259 260 299 297 288 313 328 331 352 346 18 302 314 316 269 332 297 276 285 278 268 273 299 296 290 293 284 283 293 298 297 291 290 288 289 289
184 185 181 181 184 180 180 179 180 181 179 173 172 164 154 152 142 128 103 101 98 121 123 135 152 155 152 167 176 165 164 162 161 161 160 169 169 161 155 180 174 174 143 181 230 237 243 240 240 273 269 254 282 283 304 313 284 214 191 333 328 312 262 314 326 300 190 4 281 284 274 277 269 284 293 291 291 289 290 284 282 284 284 283 282
190 189 183 181 179 178 178 179 180 181 181 176 171 168 169 162 154 153 154 155 163 165 179 178 175 177 181 167 168 169 165 161 159 160 161 163 162 154 156 163 181 202 185 202 216 237 252 259 251 237 253 250 259 281 284 297 259 238 215 195 205 254 312 311 348 310 275 255 264 209 266 258 276 291 288 286 283 283 277 282 284 285 284 281 280
195 181 179 182 182 180 180 180 182 182 180 176 172 170 170 173 174 175 173 175 174 192 178 168 170 170 162 169 171 165 164 159 162 161 163 165 157 157 162 175 191 188 197 198 226 234 241 245 254 247 241 253 269 275 271 275 311 279 244 233 242 260 272 306 297 314 319 316 178 269 228 231 268 279 280 265 282 287 284 284 284 281 279 279 281
182 176 183 183 185 184 181 182 181 182 181 174 178 177 175 176 176 180 180 182 183 176 175 175 166 162 165 165 158 161 160 159 161 164 163 163 159 161 164 178 185 197 193 208 210 220 229 255 245 233 246 249 251 259 270 264 256 272 273 281 277 268 254 254 251 266 291 306 308 269 218 242 254 239 264 287 282 275 284 279 277 277 279 281 283
179 185 187 187 184 182 181 180 184 181 181 178 180 182 180 179 180 178 182 188 175 166 164 162 156 157 153 153 155 160 161 163 164 163 167 162 160 165 170 179 185 200 195 208 215 216 228 238 263 280 266 264 242 246 259 263 256 259 286 284 287 266 273 257 267 264 256 300 290 300 308 283 229 252 278 265 269 285 283 288 290 291 292 291 287
186 185 184 181 184 181 182 183 187 183 180 180 182 182 180 177 183 185 182 177 170 161 155 156 151 153 153 158 158 160 164 164 167 164 163 164 160 163 171 179 190 198 198 210 218 231 240 242 241 244 252 256 252 253 252 258 251 253 244 253 260 286 291 282 266 258 270 237 269 299 308 316 316 307 208 298 292 280 287 289 288 288 289 288 286
182 182 183 186 184 185 184 187 189 181 181 183 182 185 182 185 186 185 183 178 172 158 154 158 153 153 161 165 167 168 162 165 163 168 164 162 164 166 171 183 186 191 201 204 217 215 225 233 234 232 234 237 247 247 257 255 250 253 253 242 242 243 239 259 265 265 265 277 294 285 293 300 296 303 306 274 282 289 285 284 284 282 279 278 278